Content
SEND FEEDBACK

Daily
Averages
Monthly
Summary
Germany

SIMMERN, GERMANY


Home > Europe > Germany
Elevation: 1298 feet     Latitude: 49 51N     Longitude: 007 36E

WEATHER
 
SELECT A DAY
Number of Records: 280,929;   Date Range: 7/3/96 - 12/17/14
 
SHARE

PRINT THIS DATA

[ ← Previous Day ]
WEATHER ALMANAC - JANUARY 31, 2013
[ Next Day → ]
[ °C ]   °F
Weather ElementAverageHighLow
Temperature41.2 °F43 °F (5:00 pm)39 °F (8:00 am)
Dewpoint36.1 °F39.2 °F (4:20 pm)33.8 °F (5:20 am)
Humidity80 %87 % (6:20 am)69 % (1:00 pm)
Barometer30.01 in30.14 in (6:00 am)29.89 in (2:50 pm)
Wind Speed16.3 mph24.6 mph (5:00 pm)
Wind Gust39.1 mph (4:50 pm)
Weather ElementAverage
Visibility11.3 mi
Wind DirectionWSW (259.6 °)

Weather ElementTotal
Precipitation---
Heating Degree Days24 (Base 65)
Averaged from 70 records on January 31, 2013
WEATHER CONDITIONS BREAKOUT
WIND DIRECTION BREAKOUT
WEATHER BY HOUR - JANUARY 31, 2013
[ °C ]   °F
Local TimeTemperatureDewpointHumidityBarometerVisibilityWind DirectionWind SpeedGust SpeedPrecipitationEventsConditions
12:20 AM41.0 °F35.6 °F81 %30.04 in6.2 miWest (270°)17.3 mph32.2 mphMostly Cloudy
12:50 AM41.0 °F35.6 °F81 %30.04 in6.2 miWest (260°)16.1 mph29.9 mphMostly Cloudy
1:00 AM41.0 °F35.0 °F73 %30.09 in31.0 miWest (270°)15.7 mphMostly Cloudy
1:20 AM41.0 °F35.6 °F81 %30.06 in6.2 miWest (270°)18.4 mph29.9 mphMostly Cloudy
1:50 AM41.0 °F35.6 °F81 %30.06 in6.2 miWest (260°)16.1 mph31.1 mphMostly Cloudy
2:20 AM41.0 °F35.6 °F81 %30.06 in6.2 miWest (260°)18.4 mphMostly Cloudy
2:50 AM41.0 °F35.6 °F81 %30.09 in6.2 miWest (260°)15.0 mphMostly Cloudy
3:00 AM40.0 °F36.0 °F81 %30.13 in19.0 miWest (260°)15.7 mphOvercast
3:20 AM41.0 °F35.6 °F81 %30.06 in6.2 miWest (260°)16.1 mphMostly Cloudy
3:50 AM41.0 °F35.6 °F81 %30.06 in6.2 miWest (260°)15.0 mph31.1 mphMostly Cloudy
4:00 AM40.0 °F36.0 °F79 %30.12 in19.0 miWest (270°)15.7 mphMostly Cloudy
4:20 AM41.0 °F35.6 °F81 %30.09 in6.2 miWest (260°)17.3 mph31.1 mphMostly Cloudy
4:50 AM41.0 °F35.6 °F81 %30.06 in6.2 miWest (260°)16.1 mphMostly Cloudy
5:00 AM40.0 °F35.0 °F77 %30.12 in22.0 miWest (270°)15.7 mphMostly Cloudy
5:20 AM41.0 °F33.8 °F76 %30.09 in6.2 miWest (260°)15.0 mph28.8 mphMostly Cloudy
5:50 AM41.0 °F35.6 °F81 %30.09 in6.2 miWest (260°)16.1 mphMostly Cloudy
6:00 AM40.0 °F35.0 °F77 %30.14 in22.0 miWest (270°)15.7 mphMostly Cloudy
6:20 AM39.2 °F35.6 °F87 %30.06 in6.2 miWest (260°)12.7 mphMostly Cloudy
6:50 AM39.2 °F35.6 °F87 %30.06 in6.2 miWest (260°)12.7 mph25.3 mphMostly Cloudy
7:00 AM40.0 °F35.0 °F77 %30.14 in19.0 miWest (270°)13.4 mphMostly Cloudy
7:20 AM39.2 °F33.8 °F81 %30.06 in6.2 miWSW (240°)11.5 mphMostly Cloudy
7:50 AM39.2 °F33.8 °F81 %30.06 in6.2 miWSW (240°)11.5 mphMostly Cloudy
8:00 AM39.0 °F35.0 °F79 %30.12 in15.0 miWSW (250°)11.2 mphPartly Cloudy
8:20 AM39.2 °F33.8 °F81 %30.06 in6.2 miWSW (250°)11.5 mphMostly Cloudy
8:50 AM39.2 °F35.6 °F87 %30.06 in6.2 miWSW (250°)12.7 mphMostly Cloudy
9:00 AM39.0 °F35.0 °F80 %30.13 in19.0 miWest (260°)11.2 mphMostly Cloudy
9:20 AM39.2 °F35.6 °F87 %30.06 in6.2 miWSW (240°)11.5 mphMostly Cloudy
9:50 AM39.2 °F35.6 °F87 %30.04 in6.2 miWSW (240°)11.5 mphMostly Cloudy
10:00 AM40.0 °F36.0 °F82 %30.09 in19.0 miWSW (250°)11.2 mphOvercast
10:20 AM41.0 °F35.6 °F81 %30.04 in6.2 miWSW (250°)15.0 mph28.8 mphMostly Cloudy
10:50 AM41.0 °F35.6 °F81 %30.01 in6.2 miWSW (240°)17.3 mph29.9 mphMostly Cloudy
11:00 AM41.0 °F36.0 °F74 %30.06 in25.0 miWSW (240°)17.9 mphMostly Cloudy
11:20 AM41.0 °F35.6 °F81 %30.01 in6.2 miWSW (240°)20.7 mph34.5 mphMostly Cloudy
11:50 AM41.0 °F35.6 °F81 %29.98 in6.2 miSW (230°)19.6 mph35.7 mphMostly Cloudy
12:00 PM42.0 °F36.0 °F71 %30.02 in28.0 miWSW (240°)17.9 mphMostly Cloudy
12:20 PM42.8 °F35.6 °F76 %29.95 in6.2 miSW (230°)20.7 mph35.7 mphMostly Cloudy
12:50 PM42.8 °F35.6 °F76 %29.95 in6.2 miWSW (250°)19.6 mph32.2 mphMostly Cloudy
1:00 PM42.0 °F35.0 °F69 %29.99 in37.0 miWest (260°)17.9 mphRainLight Rain
1:20 PM42.8 °F33.8 °F70 %29.92 in6.2 miWSW (250°)19.6 mph35.7 mphMostly Cloudy
1:50 PM41.0 °F35.6 °F81 %29.92 in6.2 miWSW (250°)18.4 mph35.7 mphMostly Cloudy
2:00 PM42.0 °F36.0 °F70 %29.96 in34.0 miWSW (250°)17.9 mphRainLight Rain
2:20 PM41.0 °F35.6 °F81 %29.92 in6.2 miWSW (250°)20.7 mph35.7 mphRainRain
2:50 PM41.0 °F37.4 °F87 %29.89 in6.2 miWSW (240°)13.8 mphRainLight Rain
3:00 PM40.0 °F37.0 °F85 %29.93 in16.0 miWSW (250°)13.4 mphRainLight Rain
3:20 PM41.0 °F37.4 °F87 %29.89 in6.2 miWSW (240°)16.1 mph32.2 mphRainLight Rain
3:50 PM42.8 °F37.4 °F81 %29.89 in6.2 miWSW (250°)16.1 mph36.8 mphMostly Cloudy
4:00 PM42.0 °F39.0 °F83 %29.92 in12.0 miWest (260°)15.7 mphRainLight Rain
4:20 PM42.8 °F39.2 °F87 %29.89 in5.6 miWSW (250°)17.3 mph31.1 mphRainRain
4:50 PM42.8 °F39.2 °F87 %29.89 in6.2 miWest (280°)24.2 mph39.1 mphRainLight Rain
5:00 PM43.0 °F39.0 °F81 %29.93 in16.0 miWest (280°)24.6 mphRainLight Rain
5:20 PM42.8 °F39.2 °F87 %29.89 in6.2 miWest (270°)18.4 mph33.4 mphRainLight Rain
5:50 PM42.8 °F37.4 °F81 %29.92 in6.2 miWest (270°)18.4 mph32.2 mphMostly Cloudy
6:00 PM43.0 °F38.0 °F78 %29.94 in22.0 miWest (280°)17.9 mphRainLight Rain
6:20 PM42.8 °F37.4 °F81 %29.92 in6.2 miWest (270°)18.4 mph34.5 mphMostly Cloudy
6:50 PM42.8 °F39.2 °F87 %29.92 in6.2 miWest (270°)17.3 mphMostly Cloudy
7:00 PM42.0 °F39.0 °F83 %29.97 in28.0 miWest (280°)17.9 mphPartly Cloudy
7:20 PM42.8 °F37.4 °F81 %29.95 in6.2 miWest (270°)17.3 mphMostly Cloudy
7:50 PM42.8 °F37.4 °F81 %29.95 in6.2 miWest (270°)16.1 mph28.8 mphMostly Cloudy
8:00 PM42.0 °F37.0 °F77 %29.99 in28.0 miWest (280°)15.7 mphOvercast
8:20 PM42.8 °F35.6 °F76 %29.95 in6.2 miWest (270°)17.3 mphMostly Cloudy
8:50 PM42.8 °F35.6 °F76 %29.95 in6.2 miWest (270°)17.3 mph32.2 mphMostly Cloudy
9:00 PM42.0 °F35.0 °F70 %29.99 in25.0 miWest (280°)17.9 mphMostly Cloudy
9:20 PM42.8 °F35.6 °F76 %29.95 in6.2 miWest (270°)18.4 mph31.1 mphMostly Cloudy
9:50 PM41.0 °F35.6 °F81 %29.95 in6.2 miWest (270°)16.1 mph32.2 mphMostly Cloudy
10:00 PM42.0 °F36.0 °F71 %29.99 in22.0 miWest (280°)15.7 mphMostly Cloudy
10:20 PM41.0 °F35.6 °F81 %29.95 in6.2 miWest (270°)16.1 mphMostly Cloudy
10:50 PM41.0 °F35.6 °F81 %29.98 in6.2 miWest (270°)15.0 mphMostly Cloudy
11:00 PM42.0 °F36.0 °F73 %30.01 in19.0 miWest (280°)15.7 mphMostly Cloudy
11:20 PM41.0 °F35.6 °F81 %29.95 in6.2 miWest (270°)16.1 mphMostly Cloudy
11:50 PM41.0 °F35.6 °F81 %29.95 in6.2 miWest (260°)15.0 mphMostly Cloudy
Hourly data recorded from EDFH, located miles away from Simmern, Germany







STORIES FROM OUR PARTNERS